Location: Newark
(51.3318°N, 0.0053°E)
Time: 00:00:14
(UTC+00:00)

ITUPSAT 1 - Pass Details

Date: 03 July 2022
Orbit: 701 x 711 km, 98.6° (Epoch: 09 August)

Event Time Altitude Azimuth Distance (km) Brightness Sun altitude
Rises 22:18:23 0° 4° (N) 3,114 ? -12.2°
Reaches altitude 10° 22:21:22 10° 344° (NNW) 2,192 ? -12.4°
Maximum altitude 22:24:21 17° 306° (NW) 1,773 ? -12.6°
Drops below altitude 10° 22:27:20 10° 267° (W) 2,187 ? -12.8°
Sets 22:30:19 0° 247° (WSW) 3,103 ? -12.9°
